TimeEAT,TemperatureF,Dew PointF,Humidity,Sea Level PressureIn,VisibilityMPH,Wind Direction,Wind SpeedMPH,Gust SpeedMPH,PrecipitationIn,Events,Conditions,WindDirDegrees,DateUTC
12:00 AM,77.0,71.6,83,29.95,6.2,South,13.8,-,N/A,,Partly Cloudy,180,2012-10-08 21:00:00
3:00 AM,77,72,81,29.89,19,SSW,4.6,,,,Scattered Clouds,200,2012-10-09 00:00:00
3:30 AM,77.0,71.6,83,29.89,6.2,SSW,8.1,-,N/A,,Partly Cloudy,210,2012-10-09 00:30:00
4:00 AM,77.0,71.6,83,29.89,6.2,SSW,5.8,-,N/A,,Partly Cloudy,200,2012-10-09 01:00:00
4:30 AM,77.0,73.4,89,29.89,6.2,SSW,4.6,-,N/A,,Mostly Cloudy,210,2012-10-09 01:30:00
6:00 AM,75.2,73.4,94,29.92,6.2,SSW,5.8,-,N/A,,Mostly Cloudy,210,2012-10-09 03:00:00
6:30 AM,77.0,71.6,83,29.95,6.2,SSW,5.8,-,N/A,,Mostly Cloudy,210,2012-10-09 03:30:00
8:00 AM,77.0,71.6,83,29.98,6.2,SSW,6.9,-,N/A,,Mostly Cloudy,200,2012-10-09 05:00:00
9:00 AM,81,72,68,29.97,19,SW,11.5,,,,Mostly Cloudy,230,2012-10-09 06:00:00
9:00 AM,80.6,73.4,79,29.98,6.2,SSW,8.1,-,N/A,,Mostly Cloudy,200,2012-10-09 06:00:00
10:00 AM,84.2,71.6,66,29.95,6.2,SSE,9.2,-,N/A,,Mostly Cloudy,150,2012-10-09 07:00:00
11:00 AM,86.0,64.4,48,29.95,6.2,SSE,9.2,-,N/A,,Scattered Clouds,160,2012-10-09 08:00:00
12:00 PM,87.8,66.2,49,29.92,6.2,SSE,18.4,-,N/A,,Partly Cloudy,150,2012-10-09 09:00:00
1:00 PM,87.8,66.2,49,29.89,6.2,SE,11.5,-,N/A,,Partly Cloudy,140,2012-10-09 10:00:00
2:00 PM,86.0,69.8,58,29.86,6.2,SSE,9.2,-,N/A,,Scattered Clouds,160,2012-10-09 11:00:00
3:00 PM,85,70,52,29.85,19,SSE,9.2,,,,Scattered Clouds,160,2012-10-09 12:00:00
3:00 PM,84.2,69.8,62,29.83,6.2,SSE,9.2,-,N/A,,Scattered Clouds,160,2012-10-09 12:00:00
4:00 PM,84.2,69.8,62,29.86,6.2,South,6.9,-,N/A,,Scattered Clouds,180,2012-10-09 13:00:00
5:00 PM,82.4,69.8,66,29.86,6.2,South,9.2,-,N/A,,Partly Cloudy,180,2012-10-09 14:00:00
6:00 PM,82.4,69.8,66,29.86,6.2,South,9.2,-,N/A,,Partly Cloudy,180,2012-10-09 15:00:00
7:00 PM,80.6,71.6,74,29.89,6.2,South,8.1,-,N/A,,Partly Cloudy,180,2012-10-09 16:00:00
8:00 PM,78.8,71.6,78,29.89,6.2,South,5.8,-,N/A,,Partly Cloudy,180,2012-10-09 17:00:00
9:00 PM,79,72,74,29.90,19,SSW,6.9,,,,Scattered Clouds,200,2012-10-09 18:00:00
9:00 PM,78.8,71.6,78,29.89,6.2,SSW,6.9,-,N/A,,Partly Cloudy,200,2012-10-09 18:00:00